This demonstration page uses our WeatherBlox Daily Observations layout. Learn more.

Left ArrowRight Arrow

Hourly Observations for October 8, 2016

Temp ( °F °C ) Dew Point ( °F °C ) Humidity (%) Winds ( mph kmh ) Pressure ( in mb ) Visibility ( mi km ) Precip ( " mm )
12:53 am 00:53 Cloudy 62 16.7 45 7.2 54 54 N 5 7 30.20 1023 10 16 0.00 0.00
1:41 am 01:41 Cloudy 63 17.2 50 10 63 63 E 8 13 30.18 1022 10 16 0.00 0.00
1:53 am 01:53 Cloudy 63 17.2 50 10 63 63 E 9 15 30.20 1023 10 16 0.00 0.00
2:53 am 02:53 Cloudy 62 16.7 50 10 65 65 SE 10 17 30.22 1023 10 16 0.00 0.00
3:33 am 03:33 Cloudy 61 16.1 51 10.6 70 70 SE 9 15 30.21 1023 10 16 0.00 0.00
3:42 am 03:42 Cloudy 61 16.1 52 11.1 72 72 SE 9 15 30.21 1023 10 16 0.00 0.00
3:53 am 03:53 Cloudy 61 16.1 52 11.1 72 72 SE 9 15 30.22 1023 10 16 0.00 0.00
4:53 am 04:53 Cloudy 59 15 53 11.7 81 81 E 8 13 30.22 1023 10 16 0.00 0.00
5:32 am 05:32 Cloudy 59 15 54 12 82 82 E 8 13 30.24 1024 10 16 0.00 0.00
5:53 am 05:53 Cloudy 59 15 54 12.2 83 83 E 6 9 30.23 1024 10 16 0.00 0.00
6:33 am 06:33 Cloudy 59 15 54 12.2 83 83 SE 6 9 30.27 1025 10 16 0.00 0.00
6:53 am 06:53 Cloudy 59 15 53 11.7 81 81 SSE 6 9 30.24 1024 10 16 0.00 0.00
7:48 am 07:48 Cloudy 59 15 54 12 82 82 SE 6 9 30.24 1024 10 16 0.00 0.00
7:53 am 07:53 Cloudy 59 15 54 12.2 83 83 SE 6 9 30.24 1024 10 16 0.00 0.00
8:07 am 08:07 Cloudy 59 15 54 12.2 83 83 SE 3 6 30.24 1024 10 16 0.00 0.00
8:53 am 08:53 Mostly Cloudy 60 15.6 54 12.2 80 80 E 3 6 30.23 1024 10 16 0.00 0.00
9:19 am 09:19 Mostly Cloudy 60 15.6 54 12.2 80 80 Calm 30.27 1025 10 16 0.00 0.00
9:39 am 09:39 Mostly Cloudy 61 16.1 53 11.7 75 75 E 7 11 30.21 1023 10 16 0.00 0.00
9:53 am 09:53 Partly Cloudy 61 16.1 53 11.7 75 75 E 6 9 30.24 1024 10 16 0.00 0.00
10:53 am 10:53 Cloudy 63 17.2 53 11.7 70 70 Calm 30.25 1024 10 16 0.00 0.00
11:53 am 11:53 Cloudy 66 18.9 52 11.1 61 61 VRB 3 6 30.22 1023 10 16 0.00 0.00
12:53 pm 12:53 Cloudy 65 18.3 52 11.1 63 63 SW 3 6 30.21 1023 10 16 0.00 0.00
1:45 pm 13:45 Cloudy with Mist and Fog 59 15 57 13.9 93 93 WSW 10 17 30.24 1024 2 3 0.00 0.00
1:53 pm 13:53 Cloudy with Mist and Fog 59 15 57 13.9 93 93 WSW 9 15 30.24 1024 2 3 0.00 0.00
2:27 pm 14:27 Cloudy with Mist and Fog 58 14.4 57 13.9 97 97 Calm 30.24 1024 3 5 0.00 0.00
2:43 pm 14:43 Cloudy with Mist and Fog 58 14.4 56 13.3 93 93 NE 6 9 30.21 1023 2 3 0.00 0.00
2:53 pm 14:53 Cloudy with Mist and Fog 58 14.4 57 13.9 97 97 E 8 13 30.20 1023 2 2 0.00 0.00
3:05 pm 15:05 Cloudy with Mist and Fog 58 14.4 57 13.9 97 97 E 14 22 30.18 1022 3 5 0.00 0.00
3:53 pm 15:53 Mostly Cloudy 59 15 57 13.9 93 93 E 10 17 30.16 1021 10 16 0.00 0.00
4:17 pm 16:17 Cloudy 61 16.1 58 14.4 90 90 ESE 7 11 30.18 1022 10 16 0.00 0.00
4:53 pm 16:53 Mostly Cloudy 61 16.1 58 14.4 90 90 E 6 9 30.17 1022 10 16 0.00 0.00
5:41 pm 17:41 Mostly Cloudy 62 16.7 58 14.4 86 86 ESE 9 15 30.15 1021 10 16 0.00 0.00
5:53 pm 17:53 Mostly Cloudy 63 17.2 58 14.4 84 84 ESE 7 11 30.16 1021 10 16 0.00 0.00
6:12 pm 18:12 Partly Cloudy 63 17 57 14 83 83 ESE 9 15 30.15 1021 10 16 0.00 0.00
6:53 pm 18:53 Sunny 62 16.7 58 14.4 86 86 ESE 8 13 30.15 1021 10 16 0.00 0.00
7:53 pm 19:53 Partly Cloudy 61 16.1 58 14.4 90 90 SW 3 6 30.18 1022 10 16 0.00 0.00
8:43 pm 20:43 Cloudy 62 16.7 59 15 90 90 SW 5 7 30.18 1022 10 16 0.00 0.00
8:53 pm 20:53 Cloudy 62 16.7 58 14.4 86 86 WSW 3 6 30.19 1023 10 16 0.00 0.00
9:29 pm 21:29 Cloudy 62 16.7 59 15 90 90 S 3 6 30.18 1022 10 16 0.00 0.00
9:53 pm 21:53 Cloudy 62 16.7 58 14.4 86 86 SSW 5 7 30.20 1023 10 16 0.00 0.00
10:50 pm 22:50 Cloudy 63 17 57 14 83 83 SE 8 13 30.18 1022 10 16 0.00 0.00
10:53 pm 22:53 Cloudy 62 16.7 59 15 90 90 SE 7 11 30.19 1023 10 16 0.00 0.00
11:38 pm 23:38 Cloudy 63 17 59 15 88 88 ESE 5 7 30.18 1022 10 16 0.00 0.00
11:53 pm 23:53 Cloudy 62 16.7 59 15 90 90 Calm 30.18 1022 10 16 0.00 0.00

Powered by AerisWeather